User: anonymous   Login
Location: Unspecified
(0.0000°N, 0.0000°E)
Time: 19:32:01
(UTC+00:00)
Language:

FIREBIRD 3 - Orbit

View from above orbital plane
View from above orbital plane
View from above satellite
View from above satellite

Ground track
Ground track

The orbit data is extracted from the following two-line orbital elements,

1 40377U 15003B   19340.62125927 +.00001372 +00000-0 +57400-4 0  9994
2 40377 099.1177 356.0093 0124658 240.6672 118.2057 15.19374862267865
Epoch (UTC): 06 December 2019 14:54:36
Eccentricity: 0.0124658
inclination: 99.1177°
perigee height: 422 km
apogee height: 593 km
right ascension of ascending node: 356.0093°
argument of perigee: 240.6672°
revolutions per day: 15.19374862
mean anomaly at epoch: 118.2057°
orbit number at epoch: 26786

The dashed part of the orbit path shows where the satellite is in the earth's shadow,  

DLR